User: anonymous   Login
Location: NJAA Observatory
(40.6819°N, 74.8979°W)
Time: 05:12:38
(UTC-04:00)
Language:

Cosmos 1328 Rocket - Orbit

View from above orbital plane
View from above orbital plane
View from above satellite
View from above satellite

Ground track
Ground track

The orbit data is extracted from the following two-line orbital elements,

1 12988U 81117B   17086.69178309 +.00000134 +00000-0 +12847-4 0  9995
2 12988 082.5252 149.8016 0019584 115.0114 000.7865 14.84642237886675
Epoch (UTC): 27 March 2017 16:36:10
Eccentricity: 0.0019584
inclination: 82.5252°
perigee height: 601 km
apogee height: 628 km
right ascension of ascending node: 149.8016°
argument of perigee: 115.0114°
revolutions per day: 14.84642237
mean anomaly at epoch: 0.7865°
orbit number at epoch: 88667

The dashed part of the orbit path shows where the satellite is in the earth's shadow,  

DLR